SAS198 ESMQ-ESSA

Flight info

Callsign SAS198
Flight time 0h 54m
Altitude 19000
Route MOVIS DCT VIBAR Z227 NILUG
Aircraft AT76/M-SDFGIRY/S

Departure

Time 2026-05-06 17:53
Airport Kalmar Airport (ESMQ)

Arrival

Time 2026-05-06 18:47
Airport Stockholm-Arlanda Airport (ESSA)
Time Latitude Longitude Altitude Speed Heading
2026-05-06 17:37 56.67791 16.28979 18 ft 0 kts 178°
2026-05-06 17:49 56.67789 16.28983 20 ft 1 kts 147°
2026-05-06 17:50 56.67790 16.28994 19 ft 2 kts 79°
2026-05-06 17:50 56.67822 16.29052 18 ft 3 kts 60°
2026-05-06 17:50 56.67833 16.29111 18 ft 12 kts 75°
2026-05-06 17:50 56.67845 16.29234 18 ft 8 kts 82°
2026-05-06 17:51 56.67845 16.29240 18 ft 2 kts 83°
2026-05-06 17:51 56.67845 16.29239 18 ft 0 kts 84°
2026-05-06 17:51 56.67845 16.29243 18 ft 3 kts 83°
2026-05-06 17:52 56.67866 16.29379 18 ft 10 kts 40°
2026-05-06 17:52 56.67920 16.29357 16 ft 9 kts 332°
2026-05-06 17:52 56.68044 16.29250 17 ft 41 kts 334°
2026-05-06 17:52 56.68506 16.28806 16 ft 106 kts 335°
2026-05-06 17:53 56.69279 16.28065 253 ft 128 kts 334°
2026-05-06 17:53 56.70131 16.27445 680 ft 143 kts 353°
2026-05-06 17:53 56.71193 16.27616 1050 ft 165 kts 18°
2026-05-06 17:53 56.72303 16.28171 1374 ft 168 kts 19°
2026-05-06 17:54 56.73449 16.28739 1719 ft 173 kts 18°
2026-05-06 17:54 56.74239 16.29069 1964 ft 176 kts 16°
2026-05-06 17:54 56.75872 16.29566 2423 ft 182 kts 11°
2026-05-06 17:54 56.76712 16.29725 2640 ft 184 kts
2026-05-06 17:55 56.77995 16.29882 2975 ft 185 kts
2026-05-06 17:55 56.79285 16.30008 3317 ft 186 kts
2026-05-06 17:55 56.80581 16.30138 3649 ft 186 kts
2026-05-06 17:55 56.81874 16.30275 3989 ft 186 kts
2026-05-06 17:56 56.83173 16.30419 4326 ft 186 kts
2026-05-06 17:56 56.84469 16.30563 4674 ft 187 kts
2026-05-06 17:56 56.85778 16.30742 5008 ft 192 kts 13°
2026-05-06 17:56 56.87008 16.31754 5339 ft 198 kts 29°
2026-05-06 17:57 56.88245 16.32959 5681 ft 204 kts 27°
2026-05-06 17:57 56.89540 16.34117 6027 ft 209 kts 25°
2026-05-06 17:57 56.90891 16.35201 6370 ft 213 kts 22°
2026-05-06 17:57 56.92271 16.36242 6694 ft 216 kts 22°
2026-05-06 17:58 56.93695 16.37308 7020 ft 226 kts 22°
2026-05-06 17:58 56.95159 16.38393 7354 ft 230 kts 21°
2026-05-06 17:58 56.96629 16.39488 7670 ft 227 kts 22°
2026-05-06 17:58 56.98097 16.40573 7914 ft 227 kts 21°
2026-05-06 17:59 56.99557 16.41672 8172 ft 227 kts 22°
2026-05-06 17:59 57.01016 16.42782 8431 ft 227 kts 22°
2026-05-06 17:59 57.02476 16.43896 8697 ft 227 kts 22°
2026-05-06 17:59 57.03936 16.45016 8966 ft 227 kts 22°
2026-05-06 18:00 57.05396 16.46133 9234 ft 228 kts 21°
2026-05-06 18:00 57.06860 16.47251 9509 ft 228 kts 21°
2026-05-06 18:00 57.08328 16.48376 9785 ft 229 kts 21°
2026-05-06 18:00 57.09797 16.49503 10033 ft 229 kts 22°
2026-05-06 18:01 57.11268 16.50641 10276 ft 229 kts 22°
2026-05-06 18:01 57.12745 16.51765 10522 ft 230 kts 21°
2026-05-06 18:01 57.14223 16.52906 10770 ft 231 kts 21°
2026-05-06 18:01 57.15697 16.54052 11022 ft 229 kts 22°
2026-05-06 18:02 57.17159 16.55209 11273 ft 228 kts 21°
2026-05-06 18:02 57.18614 16.56362 11526 ft 227 kts 22°
2026-05-06 18:02 57.20069 16.57508 11783 ft 226 kts 21°
2026-05-06 18:02 57.21501 16.58622 12034 ft 226 kts 21°
2026-05-06 18:03 57.22951 16.59745 12300 ft 225 kts 21°
2026-05-06 18:03 57.24404 16.60872 12565 ft 225 kts 21°
2026-05-06 18:03 57.25855 16.61996 12830 ft 225 kts 20°
2026-05-06 18:03 57.27281 16.63099 13098 ft 225 kts 20°
2026-05-06 18:04 57.28725 16.64216 13368 ft 225 kts 20°
2026-05-06 18:04 57.30165 16.65336 13641 ft 225 kts 20°
2026-05-06 18:04 57.31605 16.66455 13898 ft 224 kts 20°
2026-05-06 18:04 57.33048 16.67575 14139 ft 224 kts 20°
2026-05-06 18:05 57.34490 16.68699 14385 ft 224 kts 20°
2026-05-06 18:05 57.35913 16.69805 14627 ft 224 kts 20°
2026-05-06 18:05 57.37354 16.70927 14886 ft 224 kts 19°
2026-05-06 18:05 57.38795 16.72049 15134 ft 224 kts 19°
2026-05-06 18:06 57.40230 16.73169 15364 ft 225 kts 19°
2026-05-06 18:06 57.41699 16.74304 15571 ft 231 kts 19°
2026-05-06 18:06 57.43187 16.75464 15771 ft 236 kts 19°
2026-05-06 18:06 57.44713 16.76670 15974 ft 241 kts 19°
2026-05-06 18:07 57.46269 16.77893 16184 ft 245 kts 19°
2026-05-06 18:07 57.47848 16.79131 16394 ft 248 kts 19°
2026-05-06 18:07 57.49448 16.80387 16603 ft 251 kts 19°
2026-05-06 18:07 57.51071 16.81662 16814 ft 254 kts 19°
2026-05-06 18:08 57.52702 16.82947 17025 ft 256 kts 19°
2026-05-06 18:08 57.54349 16.84245 17238 ft 258 kts 19°
2026-05-06 18:08 57.56007 16.85548 17453 ft 259 kts 19°
2026-05-06 18:08 57.57671 16.86863 17671 ft 260 kts 19°
2026-05-06 18:09 57.59346 16.88184 17890 ft 261 kts 19°
2026-05-06 18:09 57.61024 16.89509 18109 ft 262 kts 19°
2026-05-06 18:09 57.62706 16.90840 18313 ft 263 kts 19°
2026-05-06 18:09 57.64399 16.92181 18510 ft 264 kts 19°
2026-05-06 18:10 57.66065 16.93500 18697 ft 264 kts 19°
2026-05-06 18:10 57.67761 16.94844 18849 ft 266 kts 19°
2026-05-06 18:10 57.69484 16.96213 18916 ft 272 kts 19°
2026-05-06 18:10 57.71245 16.97619 18950 ft 278 kts 19°
2026-05-06 18:11 57.73038 16.99045 18966 ft 283 kts 19°
2026-05-06 18:11 57.74868 17.00508 18975 ft 288 kts 19°
2026-05-06 18:11 57.76729 17.01992 18979 ft 291 kts 19°
2026-05-06 18:11 57.78606 17.03493 18980 ft 295 kts 19°
2026-05-06 18:12 57.80503 17.05014 18981 ft 297 kts 19°
2026-05-06 18:12 57.82410 17.06539 18981 ft 299 kts 19°
2026-05-06 18:12 57.84329 17.08081 18981 ft 301 kts 19°
2026-05-06 18:12 57.86263 17.09629 18981 ft 302 kts 19°
2026-05-06 18:13 57.88195 17.11184 18994 ft 303 kts 19°
2026-05-06 18:13 57.90116 17.12726 18984 ft 304 kts 19°
2026-05-06 18:13 57.92065 17.14296 18981 ft 305 kts 19°
2026-05-06 18:13 57.94040 17.15894 18836 ft 311 kts 19°
2026-05-06 18:14 57.96042 17.17515 18671 ft 312 kts 19°
2026-05-06 18:14 57.98006 17.19102 18502 ft 303 kts 19°
2026-05-06 18:14 57.99924 17.20651 18337 ft 297 kts 19°
2026-05-06 18:14 58.01809 17.22178 18151 ft 293 kts 19°
2026-05-06 18:15 58.03678 17.23694 17969 ft 291 kts 19°
2026-05-06 18:15 58.05529 17.25200 17807 ft 289 kts 19°
2026-05-06 18:15 58.07373 17.26697 17643 ft 287 kts 19°
2026-05-06 18:15 58.09199 17.28183 17481 ft 285 kts 19°
2026-05-06 18:16 58.11018 17.29670 17318 ft 284 kts 19°
2026-05-06 18:16 58.12830 17.31151 17157 ft 283 kts 20°
2026-05-06 18:16 58.14612 17.32609 17018 ft 282 kts 19°
2026-05-06 18:16 58.16411 17.34072 16858 ft 281 kts 19°
2026-05-06 18:17 58.18204 17.35538 16703 ft 280 kts 19°
2026-05-06 18:17 58.19998 17.37015 16541 ft 280 kts 20°
2026-05-06 18:17 58.21779 17.38480 16380 ft 279 kts 20°
2026-05-06 18:17 58.23558 17.39945 16228 ft 278 kts 20°
2026-05-06 18:18 58.25333 17.41405 16075 ft 278 kts 20°
2026-05-06 18:18 58.27108 17.42865 15920 ft 277 kts 20°
2026-05-06 18:18 58.28875 17.44322 15766 ft 277 kts 20°
2026-05-06 18:18 58.30640 17.45778 15613 ft 276 kts 20°
2026-05-06 18:19 58.32402 17.47235 15460 ft 276 kts 20°
2026-05-06 18:19 58.34163 17.48692 15308 ft 275 kts 20°
2026-05-06 18:19 58.35898 17.50129 15158 ft 274 kts 20°
2026-05-06 18:19 58.37652 17.51584 15009 ft 274 kts 20°
2026-05-06 18:20 58.39398 17.53031 14859 ft 273 kts 20°
2026-05-06 18:20 58.41147 17.54477 14714 ft 273 kts 21°
2026-05-06 18:20 58.42890 17.55926 14568 ft 272 kts 21°
2026-05-06 18:20 58.44608 17.57359 14420 ft 272 kts 21°
2026-05-06 18:21 58.46342 17.58810 14269 ft 271 kts 21°
2026-05-06 18:21 58.48073 17.60255 14123 ft 271 kts 21°
2026-05-06 18:21 58.49800 17.61701 13977 ft 270 kts 21°
2026-05-06 18:21 58.51522 17.63135 13832 ft 270 kts 21°
2026-05-06 18:22 58.53246 17.64578 13671 ft 269 kts 21°
2026-05-06 18:22 58.54960 17.66013 13512 ft 269 kts 21°
2026-05-06 18:22 58.56664 17.67434 13342 ft 268 kts 21°
2026-05-06 18:22 58.58379 17.68878 13177 ft 268 kts 22°
2026-05-06 18:23 58.60085 17.70319 13016 ft 268 kts 21°
2026-05-06 18:23 58.61791 17.71738 12855 ft 267 kts 22°
2026-05-06 18:23 58.63517 17.73042 12694 ft 264 kts 14°
2026-05-06 18:23 58.65298 17.73869 12532 ft 263 kts 10°
2026-05-06 18:24 58.67082 17.74603 12382 ft 262 kts 10°
2026-05-06 18:24 58.68831 17.75392 12224 ft 263 kts 12°
2026-05-06 18:24 58.70573 17.76282 12067 ft 263 kts 13°
2026-05-06 18:24 58.72340 17.77222 11912 ft 263 kts 13°
2026-05-06 18:25 58.74106 17.78164 11756 ft 263 kts 14°
2026-05-06 18:25 58.75869 17.79110 11601 ft 262 kts 14°
2026-05-06 18:25 58.77624 17.80038 11447 ft 262 kts 14°
2026-05-06 18:25 58.79381 17.80967 11292 ft 262 kts 13°
2026-05-06 18:26 58.81136 17.81901 11146 ft 261 kts 13°
2026-05-06 18:26 58.82880 17.82814 11065 ft 258 kts 14°
2026-05-06 18:26 58.84597 17.83722 11029 ft 254 kts 14°
2026-05-06 18:26 58.86293 17.84611 11012 ft 251 kts 13°
2026-05-06 18:27 58.87967 17.85487 11003 ft 248 kts 13°
2026-05-06 18:27 58.89623 17.86349 10998 ft 245 kts 14°
2026-05-06 18:27 58.91261 17.87206 10999 ft 243 kts 13°
2026-05-06 18:27 58.92891 17.88070 10997 ft 242 kts 13°
2026-05-06 18:28 58.94513 17.88922 10998 ft 241 kts 13°
2026-05-06 18:28 58.96130 17.89780 10995 ft 240 kts 13°
2026-05-06 18:28 58.97740 17.90634 10997 ft 240 kts 13°
2026-05-06 18:28 58.99349 17.91484 10997 ft 239 kts 13°
2026-05-06 18:29 59.00953 17.92331 10995 ft 239 kts 13°
2026-05-06 18:29 59.02559 17.93180 10997 ft 239 kts 13°
2026-05-06 18:29 59.04161 17.94029 10998 ft 239 kts 13°
2026-05-06 18:29 59.05763 17.94876 10996 ft 238 kts 13°
2026-05-06 18:30 59.07362 17.95726 11003 ft 238 kts 13°
2026-05-06 18:30 59.08962 17.96577 11006 ft 238 kts 13°
2026-05-06 18:30 59.10563 17.97428 11003 ft 238 kts 13°
2026-05-06 18:30 59.12164 17.98280 11006 ft 239 kts 13°
2026-05-06 18:31 59.13768 17.99127 11008 ft 238 kts 13°
2026-05-06 18:31 59.15366 17.99979 11007 ft 238 kts 13°
2026-05-06 18:31 59.16968 18.00839 11011 ft 238 kts 13°
2026-05-06 18:31 59.18546 18.01681 11013 ft 238 kts 13°
2026-05-06 18:32 59.20150 18.02535 10991 ft 239 kts 13°
2026-05-06 18:32 59.21767 18.03405 10843 ft 241 kts 13°
2026-05-06 18:32 59.23378 18.04266 10743 ft 238 kts 13°
2026-05-06 18:32 59.24966 18.05117 10670 ft 235 kts 13°
2026-05-06 18:33 59.26530 18.05957 10596 ft 233 kts 13°
2026-05-06 18:33 59.28142 18.06794 10525 ft 243 kts 12°
2026-05-06 18:33 59.29804 18.07644 10454 ft 252 kts 12°
2026-05-06 18:33 59.31526 18.08538 10379 ft 259 kts 13°
2026-05-06 18:34 59.33280 18.09473 10306 ft 264 kts 13°
2026-05-06 18:34 59.35087 18.10278 10231 ft 267 kts
2026-05-06 18:34 59.36910 18.10946 10108 ft 265 kts
2026-05-06 18:34 59.38703 18.11579 9983 ft 258 kts
2026-05-06 18:35 59.40460 18.12188 9802 ft 255 kts
2026-05-06 18:35 59.42204 18.12771 9604 ft 253 kts
2026-05-06 18:35 59.43937 18.13336 9409 ft 252 kts
2026-05-06 18:35 59.45659 18.13899 9211 ft 250 kts
2026-05-06 18:36 59.47356 18.14459 9018 ft 249 kts
2026-05-06 18:36 59.49070 18.15014 8783 ft 250 kts
2026-05-06 18:36 59.50790 18.15576 8540 ft 251 kts
2026-05-06 18:36 59.52511 18.16147 8258 ft 252 kts
2026-05-06 18:37 59.54244 18.16734 7989 ft 253 kts
2026-05-06 18:37 59.55390 18.17111 7817 ft 253 kts
2026-05-06 18:37 59.57715 18.17858 7472 ft 253 kts
2026-05-06 18:37 59.59447 18.18404 7231 ft 252 kts
2026-05-06 18:38 59.61172 18.18942 7019 ft 249 kts
2026-05-06 18:38 59.62887 18.19289 6827 ft 247 kts
2026-05-06 18:38 59.64599 18.19533 6624 ft 246 kts
2026-05-06 18:38 59.66305 18.19742 6457 ft 244 kts
2026-05-06 18:39 59.67991 18.19927 6304 ft 242 kts
2026-05-06 18:39 59.69669 18.20104 6154 ft 240 kts
2026-05-06 18:39 59.71333 18.20272 5980 ft 239 kts
2026-05-06 18:40 59.74655 18.20597 5656 ft 238 kts
2026-05-06 18:40 59.76287 18.20761 5494 ft 238 kts
2026-05-06 18:40 59.77950 18.20925 5273 ft 240 kts
2026-05-06 18:40 59.79608 18.20965 5066 ft 237 kts 349°
2026-05-06 18:41 59.81039 18.19462 4819 ft 236 kts 313°
2026-05-06 18:41 59.81627 18.17637 4649 ft 229 kts 290°
2026-05-06 18:41 59.82108 18.14697 4370 ft 222 kts 285°
2026-05-06 18:41 59.82654 18.10824 4017 ft 219 kts 283°
2026-05-06 18:42 59.82915 18.08889 3844 ft 218 kts 283°
2026-05-06 18:42 59.83230 18.05987 3577 ft 211 kts 268°
2026-05-06 18:42 59.82751 18.03334 3333 ft 206 kts 227°
2026-05-06 18:42 59.81590 18.01789 3075 ft 200 kts 206°
2026-05-06 18:43 59.80348 18.00556 2799 ft 198 kts 207°
2026-05-06 18:43 59.79215 17.99029 2640 ft 192 kts 214°
2026-05-06 18:43 59.78172 17.97614 2716 ft 174 kts 210°
2026-05-06 18:43 59.77134 17.96532 2450 ft 163 kts 202°
2026-05-06 18:44 59.76114 17.95634 2050 ft 159 kts 202°
2026-05-06 18:44 59.75099 17.94988 1694 ft 149 kts 187°
2026-05-06 18:44 59.74098 17.94890 1455 ft 136 kts 184°
2026-05-06 18:44 59.73307 17.94782 1534 ft 96 kts 186°
2026-05-06 18:45 59.72662 17.94541 1419 ft 95 kts 189°
2026-05-06 18:45 59.71995 17.94340 1275 ft 99 kts 188°
2026-05-06 18:45 59.71313 17.94051 1149 ft 100 kts 191°
2026-05-06 18:45 59.70624 17.93690 974 ft 106 kts 194°
2026-05-06 18:46 59.69912 17.93344 810 ft 106 kts 187°
2026-05-06 18:46 59.69209 17.93188 730 ft 99 kts 179°
2026-05-06 18:46 59.68516 17.93061 595 ft 101 kts 185°
2026-05-06 18:46 59.67835 17.92808 499 ft 102 kts 188°
2026-05-06 18:47 59.67142 17.92550 322 ft 98 kts 186°
2026-05-06 18:47 59.66499 17.92320 149 ft 88 kts 186°
2026-05-06 18:47 59.66099 17.92184 116 ft 20 kts 193°
2026-05-06 18:47 59.65895 17.92120 111 ft 45 kts 193°
2026-05-06 18:48 59.65643 17.92030 105 ft 29 kts 175°
2026-05-06 18:48 59.65489 17.92149 100 ft 21 kts 156°
2026-05-06 18:48 59.65415 17.92217 100 ft 2 kts 153°
2026-05-06 18:48 59.65414 17.92218 100 ft 0 kts 152°
2026-05-06 18:49 59.65419 17.92348 101 ft 26 kts 47°
2026-05-06 18:49 59.65512 17.92534 102 ft 16 kts 58°
2026-05-06 18:49 59.65556 17.92831 105 ft 28 kts 76°
2026-05-06 18:49 59.65595 17.93134 106 ft 18 kts 77°
2026-05-06 18:50 59.65629 17.93404 107 ft 25 kts 75°
2026-05-06 18:50 59.65674 17.93753 111 ft 25 kts 76°
2026-05-06 18:50 59.65713 17.94063 116 ft 22 kts 75°
2026-05-06 18:50 59.65716 17.94302 119 ft 14 kts 140°
2026-05-06 18:51 59.65605 17.94350 120 ft 19 kts 165°
2026-05-06 18:51 59.65474 17.94368 121 ft 20 kts 188°
2026-05-06 18:51 59.65337 17.94432 125 ft 17 kts 164°
2026-05-06 18:51 59.65279 17.94489 124 ft 4 kts 178°
2026-05-06 18:52 59.65278 17.94421 125 ft 9 kts 328°
2026-05-06 18:52 59.65317 17.94320 125 ft 12 kts 301°
2026-05-06 18:52 59.65315 17.94325 125 ft 3 kts 302°
2026-05-06 18:52 59.65306 17.94357 123 ft 0 kts 298°